Location: Spruce Knob
(38.6995°N, 79.5330°W)
Time: 21:34:06
(UTC-04:00)

A-11 Canister half - Pass Details

Date: 01 February 2022
Orbit: 1513 x 1686 km, 47.2° (Epoch: 24 May)

Event Time Altitude Azimuth Distance (km) Brightness Sun altitude
Rises 00:13:52 0° 285° (WNW) 4,654 - -68.1°
Reaches altitude 10° 00:20:01 10° 254° (WSW) 3,669 - -68.3°
Maximum altitude 00:22:26 11° 238° (WSW) 3,572 - -68.3°
Drops below altitude 10° 00:24:53 10° 222° (SW) 3,677 - -68.4°
Sets 00:31:08 0° 191° (SSW) 4,683 - -68.4°
